This demonstration page uses our WeatherBlox Daily Observations layout. Learn more.

Left ArrowRight Arrow

44.8408, -93.29828

Hourly Observations for September 12, 2019

Temp ( °F °C ) Dew Point ( °F °C ) Humidity (%) Winds ( mph kmh ) Pressure ( in mb ) Visibility ( mi km ) Precip ( " mm )
12:53 am 00:53 Cloudy 58 14.4 55 12.8 90 90 ENE 16 26 30.05 1018 10 16 0.00 0.00
1:53 am 01:53 Cloudy 58 14.4 55 12.8 90 90 ENE 15 24 30.05 1018 10 16 0.00 0.00
2:44 am 02:44 Cloudy 59 15 55 12.8 87 87 ESE 16 26 30.08 1019 10 16 0.00 0.00
2:53 am 02:53 Cloudy 59 15 55 12.8 87 87 ESE 18 30 30.10 1019 10 16 0.00 0.00
3:37 am 03:37 Cloudy with Rain 58 14.4 56 13.3 93 93 ENE 15 24 30.06 1018 4 6 0.04 1.02
3:53 am 03:53 Cloudy with Nearby Thunderstorms 58 14.4 56 13.3 93 93 ENE 10 17 30.06 1018 5 8 0.09 2.29
4:23 am 04:23 Cloudy with Heavy Rain 58 14.4 56 13.3 93 93 E 10 17 30.06 1018 4 6 0.09 2.29
4:44 am 04:44 Cloudy with Light Rain 58 14.4 56 13.3 93 93 E 16 26 30.04 1017 7 11 0.18 4.57
4:53 am 04:53 Cloudy with Light Rain 58 14.4 56 13.3 93 93 E 17 28 30.03 1017 5 8 0.19 4.83
5:53 am 05:53 Cloudy with Light Rain 58 14.4 56 13.3 93 93 E 14 22 30.02 1017 7 11 0.09 2.29
6:09 am 06:09 Cloudy with Nearby Thunderstorms 58 14.4 56 13.3 93 93 E 16 26 30.02 1016 4 6 0.01 0.25
6:30 am 06:30 Cloudy with Light Rain 59 15 56 13.3 90 90 E 15 24 29.99 1016 10 16 0.04 1.02
6:45 am 06:45 Cloudy with Nearby Thunderstorms 59 15 56 13.3 90 90 ESE 17 28 30.00 1016 10 16 0.04 1.02
6:53 am 06:53 Cloudy with Nearby Thunderstorms 59 15 56 13.3 90 90 ESE 16 26 30.01 1016 10 16 0.04 1.02
7:01 am 07:01 Cloudy with Rain 59 15 56 13.3 90 90 ESE 16 26 30.01 1016 5 8 0.02 0.51
7:13 am 07:13 Cloudy with Nearby Thunderstorms 59 15 56 13.3 90 90 ESE 20 31 29.99 1016 7 11 0.04 1.02
7:27 am 07:27 Cloudy with Thunderstorms 59 15 57 13.9 93 93 ESE 8 13 30.02 1017 5 8 0.09 2.29
7:31 am 07:31 Cloudy with Strong Thunderstorms 59 15 57 13.9 93 93 ESE 8 13 30.03 1017 1 2 0.12 3.05
7:39 am 07:39 Cloudy with Strong Thunderstorms 58 14.4 57 13.9 97 97 E 8 13 30.02 1016 3 5 0.38 9.65
7:43 am 07:43 Cloudy with Rain 58 14.4 57 13.9 97 97 ENE 7 11 30.02 1016 5 8 0.40 10.16
7:47 am 07:47 Cloudy with Nearby Thunderstorms 57 14 57 14 100 100 ENE 10 17 30.01 1016 5 8 0.42 10.67
7:53 am 07:53 Cloudy with Nearby Thunderstorms 58 14.4 56 13.3 93 93 ENE 13 20 29.98 1015 7 11 0.45 11.43
8:00 am 08:00 Cloudy with Rain 58 14.4 56 13.3 93 93 E 14 22 29.99 1015 8 13 0.02 0.51
8:10 am 08:10 Cloudy with Nearby Thunderstorms 59 15 57 13.9 93 93 E 16 26 29.98 1015 8 13 0.04 1.02
8:41 am 08:41 Cloudy with Rain 59 15 57 13.9 93 93 ESE 20 31 29.96 1015 8 13 0.15 3.81
8:53 am 08:53 Cloudy with Rain 59 15 57 13.9 93 93 ESE 30 48 29.93 1013 7 11 0.19 4.83
9:22 am 09:22 Cloudy with Light Rain 59 15 56 13.3 90 90 ESE 28 44 29.88 1012 8 13 0.03 0.76
9:53 am 09:53 Cloudy with Light Rain 59 15 56 13.3 90 90 ESE 24 39 29.90 1012 10 16 0.04 1.02
10:24 am 10:24 Cloudy 60 15.6 57 13.9 90 90 ESE 22 35 29.90 1013 10 16 0.00 0.00
10:53 am 10:53 Cloudy 62 16.7 58 14.4 86 86 SE 16 26 29.93 1014 10 16 0.00 0.00
11:53 am 11:53 Cloudy 63 17.2 58 14.4 84 84 ESE 15 24 29.94 1014 10 16 0.00 0.00
12:31 pm 12:31 Cloudy 62 16.7 58 14.4 86 86 ESE 20 31 29.93 1013 10 16 0.00 0.00
12:53 pm 12:53 Cloudy 62 16.7 59 15 90 90 SE 17 28 29.93 1014 10 16 0.00 0.00
1:53 pm 13:53 Cloudy 62 16.7 60 15.6 93 93 SE 16 26 29.91 1013 9 14 0.04 1.02
2:53 pm 14:53 Cloudy with Drizzle 63 17.2 61 16.1 93 93 ESE 20 31 29.87 1012 8 13 0.00 0.00
3:53 pm 15:53 Cloudy with Drizzle 64 17.8 62 16.7 93 93 SE 18 30 29.84 1010 10 16 0.01 0.25
4:27 pm 16:27 Cloudy with Drizzle 64 17.8 62 16.7 93 93 SE 16 26 29.80 1009 10 16 0.00 0.00
4:53 pm 16:53 Cloudy with Drizzle 65 18.3 62 16.7 90 90 ESE 18 30 29.79 1009 5 8 0.00 0.00
5:30 pm 17:30 Cloudy with Nearby Thunderstorms 65 18.3 62 16.7 90 90 ESE 16 26 29.80 1009 10 16 0.00 0.00
5:53 pm 17:53 Cloudy with Light Rain 65 18.3 63 17.2 93 93 SE 10 17 29.82 1010 5 8 0.01 0.25
6:22 pm 18:22 Cloudy 66 18.9 64 17.8 93 93 SE 9 15 29.80 1009 10 16 0.01 0.25
6:49 pm 18:49 Cloudy 66 19 64 18 94 94 ESE 12 19 29.80 1009 10 16 0.02 0.51
6:53 pm 18:53 Cloudy with Light Rain 66 18.9 64 17.8 93 93 ESE 13 20 29.81 1010 10 16 0.02 0.51
7:53 pm 19:53 Cloudy 67 19.4 64 17.8 91 91 SE 5 7 29.82 1010 10 16 0.00 0.00
8:41 pm 20:41 Mostly Cloudy 66 18.9 64 17.8 93 93 SE 7 11 29.82 1010 10 16 0.00 0.00
8:53 pm 20:53 Mostly Cloudy 66 18.9 64 17.8 93 93 SE 7 11 29.83 1010 10 16 0.00 0.00
9:53 pm 21:53 Partly Cloudy 66 18.9 64 17.8 93 93 SE 9 15 29.83 1010 10 16 0.00 0.00
10:53 pm 22:53 Mostly Cloudy 66 18.9 64 17.8 93 93 SSE 6 9 29.83 1010 10 16 0.00 0.00
11:53 pm 23:53 Partly Cloudy 66 18.9 62 16.7 87 87 WSW 8 13 29.82 1010 10 16 0.00 0.00

Powered by AerisWeather